Flag for Mexico Weather past 2 weeks in Puerto Vallarta, Jalisco, Mexico

Now
84 °F

Partly sunny.


Feels Like: 88 °F
Forecast: N/A
Wind: 16 mph from South

Location: Puerto Vallarta / Lic


UV Index: N/A

Visibility: 15 mi


Pressure: 29.84 "Hg

Humidity: 62%

Dew point: 70 °F

Location of Puerto VallartaLocation

Historic Weather in Puerto Vallarta

°F

Puerto Vallarta temperature yesterday

Maximum temperature yesterday: 84 °F (at 12:49 PM)
Minimum temperature yesterday: 68 °F (at 6:47 AM)
Average temperature yesterday: 77 °F

Past Weeks' High & Low Weather Summary

 TemperatureHumidityPressure
High86 °F (Apr 9, 12:47 PM)94% (Apr 10, 6:51 AM)29.98 "Hg (Apr 10, 6:51 AM)
Low59 °F (Apr 4, 6:48 AM)29% (Apr 3, 12:46 PM)28.66 "Hg (Apr 16, 6:49 PM)
Average74 °F74%29.87 "Hg
* Reported Apr 2 2:47 PM — Apr 17 3:48 PM, Puerto Vallarta, Weather by CustomWeather, © 2014

Note: Actual official high and low records may vary slightly from our data, if they occured in-between our weather recording intervals... More about our weather records

Advertising

Historic Weather Conditions — Data for Previous 24 hours

 ConditionsComfort  
Time TempWeatherWind HumidityBarometerVisibility
3:48 PM
Apr 17
84 °FPartly sunny.16 mph62%29.84 "Hg15 mi
1:48 PM84 °FPartly sunny.10 mph58%29.90 "Hg15 mi
12:45 PM84 °FBroken clouds.8 mph58%29.88 "Hg15 mi
10:47 AM82 °FScattered clouds.No wind62%29.90 "Hg15 mi
9:55 AM79 °FScattered clouds.No wind70%29.87 "Hg15 mi
8:45 AM73 °FPassing clouds.No wind61%29.87 "Hg15 mi
7:49 AM72 °FPassing clouds.No wind88%29.85 "Hg10 mi
6:49 AM73 °FPassing clouds.No wind83%29.84 "Hg10 mi
5:49 AM75 °FOvercast.No wind78%29.85 "Hg10 mi
4:49 AM73 °FOvercast.No wind83%29.86 "Hg10 mi
3:49 AM73 °FOvercast.No wind83%29.85 "Hg10 mi
2:49 AM72 °FPassing clouds.No wind88%29.86 "Hg10 mi
1:49 AM73 °FClear.No wind83%29.87 "Hg10 mi
12:49 AM75 °FClear.No wind78%29.88 "Hg10 mi
11:49 PM
Apr 16
75 °FClear.No wind83%29.88 "Hg10 mi
10:49 PM77 °FPassing clouds.No wind79%29.88 "Hg10 mi
9:49 PM77 °FPartly cloudy.5 mph74%29.84 "Hg10 mi
8:49 PM79 °FMore clouds than sun.7 mph70%29.86 "Hg10 mi
7:52 PM79 °FMore clouds than sun.7 mph70%29.85 "Hg10 mi
6:49 PM79 °FMore clouds than sun.10 mph70%28.66 "Hg10 mi
5:46 PM81 °FMore clouds than sun.15 mph70%29.86 "Hg10 mi
Weather by CustomWeather, © 2014

See weather overview